Regional Weather Roundup
Issued by NWS Little Rock, AR

Home | Current Version | Previous Version | Text Only | Print | Product List | Glossary On
Versions: 1 2 3 4 5 6 7 8 9 10 11 12 13 14 15 16 17 18 19 20 21 22 23 24 25 26 27 28 29 30 31 32 33 34 35 36 37 38 39 40 41 42 43 44 45 46 47 48 49 50
000
ASUS44 KLZK 281905
RWRLZK

WEATHER ROUNDUP FOR ARKANSAS
NATIONAL WEATHER SERVICE LITTLE ROCK AR
200 PM CDT TUE MAR 28 2017

NOTE: "FAIR" INDICATES FEW OR NO CLOUDS BELOW 12,000 FEET WITH NO
SIGNIFICANT WEATHER AND/OR OBSTRUCTIONS TO VISIBILITY.

ARZ001-003-010-029-282000-
NORTHWEST ARKANSAS

CITY           SKY/WX    TMP DP  RH WIND       PRES   REMARKS
FAYETTEVILLE   SUNNY     70  55  59 E6        29.94F
FORT SMITH     SUNNY     73  55  53 NE15      29.91F
HARRISON       PTSUNNY   63  53  70 E5        30.01F
BENTONVILLE    SUNNY     66  52  59 E6        29.96F
ROGERS         SUNNY     67  52  58 SE10      29.96F
SILOAM SPGS    SUNNY     68  52  56 E6        29.93F
HIGHFILL       SUNNY     68  53  58 E8        29.94F
SPRINGDALE     SUNNY     68  54  60 SE6G13    29.97F
$$

ARZ004-005-016-282000-
NORTH CENTRAL ARKANSAS

CITY           SKY/WX    TMP DP  RH WIND       PRES   REMARKS
BATESVILLE     PTSUNNY   68  54  60 E10       30.02F
FLIPPIN        CLOUDY    66  50  55 SE7       29.99F
MTN HOME       PTSUNNY   64  51  62 VRB5      30.01F
$$

ARZ040-041-282000-
WEST CENTRAL ARKANSAS

CITY           SKY/WX    TMP DP  RH WIND       PRES   REMARKS
MENA           PTSUNNY   75  63  64 NE7       29.93F
MOUNT IDA      SUNNY     75  58  55 VRB7      29.91F
$$

ARZ009-017-025-026-028-282000-
NORTHEAST ARKANSAS

CITY           SKY/WX    TMP DP  RH WIND       PRES   REMARKS
CORNING        CLOUDY    64  55  72 E9        30.05F
JONESBORO      MOSUNNY   66  56  70 NE8       30.03F
NEWPORT          N/A     67  58  72 MISG        N/A
WALNUT RIDGE   PTSUNNY   64  54  68 NE8       30.04F
BLYTHEVILLE    MOSUNNY   68  58  70 N9        30.04F
NW BLYTHEVILLE PTSUNNY   66  54  63 NE5       30.04F
$$

ARZ022-023-033-042-044-282000-
CENTRAL ARKANSAS

CITY           SKY/WX    TMP DP  RH WIND       PRES   REMARKS
LITTLE ROCK    MOSUNNY   70  59  68 E8        29.97F
N LITTLE ROCK    N/A     71  61  71 E7        29.97F
JACKSONVILLE   MOSUNNY   73  61  64 E8        29.97F
CONWAY           N/A     72  61  68 NE12      29.95F
SEARCY         PTSUNNY   70  60  70 E8        30.01F
HOT SPRINGS    SUNNY     75  60  59 SE10      29.93F
RUSSELLVILLE   PTSUNNY   68  56  65 E9G16     29.97F
CLINTON        PTSUNNY   68  57  68 E6        30.00F
$$

ARZ036-282000-
EAST ARKANSAS

CITY           SKY/WX    TMP DP  RH WIND       PRES   REMARKS
WEST MEMPHIS   SUNNY     74  60  61 N10       29.98F
$$

ARZ050-053-066-070-073-282000-
SOUTHWEST ARKANSAS

CITY           SKY/WX    TMP DP  RH WIND       PRES   REMARKS
ARKADELPHIA    FAIR      77  64  64 VRB6      29.93F
CAMDEN         CLOUDY    75  61  60 S8        29.94F
TEXARKANA      CLOUDY    70  63  78 E5        29.93F
EL DORADO      CLOUDY    74  65  73 SE5       29.94F
DE QUEEN       CLOUDY    73  64  73 SE8       29.89F
$$

ARZ056-057-069-282000-
SOUTHEAST ARKANSAS

CITY           SKY/WX    TMP DP  RH WIND       PRES   REMARKS
PINE BLUFF     SUNNY     75  61  61 E7        29.96F
STUTTGART      SUNNY     73  55  53 NE9       29.99F
MONTICELLO     CLOUDY    79  62  56 NE5       29.94F

$$





USA.gov is the U.S. government's official web portal to all federal, state and local government web resources and services.